Total_Precipitation_Accumulation
1.17 1.31 1.90 2.55 2.84 2.23 1.78 1.38 1.01 0.90 0.83 0.59 0.44 0.43 0.62 0.91 1.24 1.52 1.28 1.06 0.76 0.61 0.58 0.87 1.24 1.12 1.00 0.94 0.99 1.11 1.16 1.25 1.08 1.00 0.86 0.73 0.63 0.62 0.62 0.54 0.50 0.54 0.48 0.43 0.46 0.57 0.57 0.60 0.62
1.08 1.90 2.66 3.26 2.74 1.89 1.72 1.38 1.17 0.89 0.60 0.47 0.35 0.36 0.47 0.45 0.39 0.69 1.31 1.33 0.79 0.61 0.61 0.80 1.24 1.14 1.10 1.09 1.13 1.14 1.18 1.26 1.12 0.98 0.83 0.71 0.67 0.68 0.69 0.78 0.81 0.68 0.51 0.47 0.46 0.58 0.61 0.58 0.62
1.32 2.50 3.46 3.22 2.18 1.74 1.81 1.40 1.00 0.66 0.45 0.43 0.41 0.38 0.49 0.58 0.54 0.92 1.38 1.10 0.77 0.64 0.70 0.98 1.26 1.12 1.06 1.11 1.20 1.18 1.23 1.22 1.11 0.95 0.76 0.70 0.73 0.83 0.92 0.96 0.87 0.68 0.56 0.52 0.54 0.60 0.64 0.58 0.54
1.74 2.87 3.00 2.37 2.00 1.65 1.43 1.13 0.78 0.71 0.54 0.38 0.37 0.47 0.45 0.55 0.60 0.89 0.99 0.83 0.76 0.73 0.65 0.85 1.12 1.08 1.06 1.11 1.15 1.11 1.12 1.18 1.15 0.94 0.77 0.73 0.73 0.75 0.83 0.91 0.82 0.66 0.58 0.55 0.61 0.65 0.65 0.61 0.57
2.19 2.69 2.58 2.16 1.93 1.54 1.11 0.87 0.70 0.72 0.68 0.46 0.35 0.59 0.74 0.83 0.77 0.85 0.93 0.91 0.73 0.70 0.64 0.70 0.95 0.95 0.92 1.02 1.12 1.12 1.14 1.16 1.11 0.90 0.80 0.81 0.78 0.72 0.79 0.82 0.76 0.63 0.57 0.57 0.64 0.67 0.70 0.65 0.61
2.43 2.40 2.52 2.40 2.15 1.71 1.29 0.94 0.71 0.66 0.61 0.47 0.44 0.62 0.91 1.16 1.08 1.06 0.91 0.92 0.82 0.74 0.64 0.58 0.81 0.88 0.84 0.89 0.97 1.03 1.06 1.10 1.05 0.85 0.78 0.76 0.76 0.73 0.73 0.76 0.76 0.67 0.68 0.68 0.68 0.66 0.69 0.71 0.65
2.33 2.22 2.17 2.03 2.18 2.17 1.57 0.96 0.83 0.71 0.67 0.54 0.47 0.70 0.93 1.27 1.07 1.06 0.99 0.94 0.95 0.82 0.74 0.64 0.69 0.75 0.86 0.94 0.96 0.98 1.00 1.02 1.04 0.91 0.83 0.80 0.73 0.64 0.62 0.64 0.66 0.70 0.77 0.74 0.68 0.64 0.62 0.66 0.66
1.90 1.84 1.68 1.75 2.02 2.13 1.40 0.80 0.64 0.68 0.63 0.39 0.45 0.66 0.87 1.00 0.97 1.04 1.01 0.94 0.91 0.86 0.79 0.68 0.71 0.78 0.74 0.81 1.00 1.06 1.08 1.10 1.13 0.99 0.87 0.83 0.69 0.60 0.60 0.54 0.59 0.67 0.80 0.87 0.81 0.73 0.68 0.68 0.71
1.75 1.86 1.86 2.02 1.89 1.69 1.09 0.86 0.70 0.61 0.58 0.45 0.41 0.47 0.62 0.67 0.81 0.97 1.02 0.97 0.90 0.82 0.74 0.67 0.70 0.81 0.85 0.80 0.90 1.17 1.20 1.23 1.19 1.05 0.95 0.84 0.65 0.57 0.59 0.56 0.72 0.74 0.78 0.87 0.90 0.90 0.83 0.78 0.72
1.81 1.92 1.95 1.72 1.29 1.14 0.91 0.83 0.75 0.63 0.65 0.57 0.48 0.55 0.67 0.73 0.80 0.88 0.88 0.84 0.82 0.83 0.75 0.64 0.63 0.66 0.73 0.77 0.90 1.05 1.03 1.04 1.02 1.16 1.07 0.94 0.89 0.77 0.50 0.56 0.77 0.91 0.94 0.91 0.88 0.97 0.86 0.70 0.54
1.44 1.49 1.25 1.26 0.97 0.82 0.80 0.74 0.67 0.73 0.78 0.53 0.54 0.62 0.70 0.77 0.80 0.85 0.86 0.77 0.76 0.76 0.72 0.60 0.52 0.50 0.53 0.66 0.82 0.92 1.02 1.12 1.08 1.04 1.04 1.01 0.89 0.71 0.58 0.63 0.65 0.70 0.77 0.70 0.74 0.73 0.59 0.52 0.54
1.24 1.06 0.87 0.95 0.78 0.81 0.81 0.66 0.61 0.64 0.68 0.49 0.47 0.55 0.69 0.72 0.75 0.77 0.75 0.73 0.66 0.66 0.69 0.61 0.46 0.42 0.40 0.47 0.56 0.67 0.80 0.92 0.96 0.81 0.77 0.85 0.87 0.76 0.63 0.64 0.63 0.63 0.67 0.76 0.79 0.78 0.68 0.64 0.62
1.36 1.12 0.89 0.83 0.81 0.76 0.73 0.67 0.60 0.55 0.52 0.51 0.53 0.62 0.66 0.73 0.77 0.77 0.65 0.62 0.57 0.60 0.64 0.61 0.49 0.46 0.41 0.43 0.43 0.44 0.63 0.81 0.91 0.93 0.80 0.77 0.79 0.77 0.71 0.60 0.62 0.57 0.60 0.67 0.71 0.75 0.76 0.80 0.77
1.17 1.04 0.97 0.92 0.83 0.69 0.72 0.70 0.59 0.64 0.56 0.54 0.53 0.56 0.60 0.69 0.71 0.66 0.59 0.54 0.50 0.51 0.60 0.61 0.59 0.59 0.51 0.43 0.42 0.43 0.52 0.64 0.72 0.87 0.88 0.83 0.75 0.71 0.74 0.69 0.70 0.71 0.69 0.69 0.69 0.68 0.79 0.84 0.83
0.90 1.06 1.06 0.94 0.85 0.76 0.73 0.84 0.69 0.71 0.68 0.67 0.60 0.52 0.55 0.60 0.60 0.56 0.51 0.48 0.48 0.48 0.51 0.51 0.53 0.60 0.60 0.58 0.54 0.53 0.61 0.63 0.70 0.76 0.77 0.84 0.75 0.68 0.74 0.77 0.78 0.79 0.80 0.79 0.80 0.81 0.88 0.85 0.88
0.97 1.20 1.38 1.09 0.93 0.89 0.92 1.00 0.80 0.81 0.78 0.76 0.67 0.59 0.53 0.55 0.56 0.55 0.51 0.44 0.44 0.43 0.43 0.48 0.46 0.54 0.63 0.68 0.70 0.73 0.75 0.78 0.84 0.81 0.78 0.78 0.73 0.71 0.80 0.82 0.86 0.92 0.84 0.81 0.88 0.93 0.98 0.95 0.98
1.21 1.19 1.17 1.11 0.89 0.85 0.90 0.89 0.78 0.85 0.80 0.70 0.63 0.57 0.48 0.49 0.53 0.52 0.49 0.42 0.39 0.40 0.43 0.48 0.49 0.55 0.62 0.68 0.77 0.86 0.93 1.01 1.14 1.10 1.06 1.00 0.88 0.89 0.96 1.01 1.04 1.06 1.08 1.00 0.90 0.92 0.99 1.09 1.12
1.16 0.87 0.79 0.84 0.84 0.75 0.79 0.74 0.72 0.80 0.69 0.64 0.55 0.49 0.40 0.42 0.47 0.48 0.49 0.45 0.42 0.41 0.43 0.47 0.54 0.62 0.73 0.88 1.09 1.30 1.37 1.55 1.76 1.70 1.55 1.36 1.20 1.17 1.27 1.25 1.21 1.27 1.36 1.38 1.18 1.22 1.18 1.13 1.20
0.72 0.64 0.64 0.62 0.60 0.63 0.60 0.59 0.61 0.60 0.56 0.49 0.42 0.40 0.37 0.32 0.36 0.40 0.42 0.41 0.35 0.32 0.36 0.41 0.46 0.56 0.68 0.90 1.21 1.63 1.84 1.98 2.00 2.01 1.91 1.70 1.48 1.50 1.67 1.64 1.62 1.63 1.61 1.57 1.51 1.64 1.58 1.32 1.23
0.59 0.60 0.59 0.57 0.54 0.53 0.46 0.43 0.46 0.44 0.36 0.32 0.30 0.30 0.30 0.29 0.30 0.27 0.30 0.31 0.26 0.22 0.22 0.31 0.37 0.46 0.61 0.89 1.20 1.53 1.89 1.97 2.00 2.01 1.97 1.85 1.72 1.73 1.77 1.97 2.08 2.05 2.15 2.12 1.94 2.07 2.07 1.71 1.47
0.54 0.58 0.55 0.57 0.58 0.52 0.44 0.42 0.45 0.39 0.30 0.26 0.24 0.25 0.27 0.25 0.25 0.25 0.24 0.24 0.22 0.19 0.16 0.21 0.27 0.41 0.70 1.05 1.36 1.54 1.84 1.96 2.02 1.99 2.00 2.02 1.98 1.88 1.90 2.01 2.18 2.21 2.27 2.36 2.43 2.37 2.46 2.24 1.86
0.56 0.41 0.36 0.39 0.52 0.56 0.45 0.50 0.44 0.37 0.39 0.34 0.28 0.27 0.30 0.30 0.25 0.24 0.25 0.21 0.17 0.16 0.15 0.17 0.24 0.44 0.77 1.12 1.37 1.60 1.95 2.06 2.04 2.07 2.08 2.09 2.11 2.07 2.14 2.16 2.27 2.30 2.32 2.41 2.51 2.47 2.60 2.64 2.27
0.41 0.32 0.31 0.32 0.40 0.45 0.34 0.36 0.38 0.36 0.42 0.44 0.36 0.32 0.34 0.31 0.24 0.22 0.21 0.19 0.17 0.17 0.18 0.22 0.36 0.56 0.82 1.03 1.28 1.63 1.88 1.99 2.15 2.10 2.08 2.10 2.16 2.18 2.22 2.28 2.44 2.43 2.41 2.38 2.59 2.64 2.72 2.65 2.56
0.27 0.34 0.36 0.34 0.38 0.42 0.24 0.30 0.41 0.36 0.33 0.35 0.34 0.29 0.30 0.29 0.25 0.25 0.23 0.21 0.21 0.24 0.29 0.36 0.51 0.66 0.89 1.07 1.27 1.45 1.69 1.84 1.98 2.08 2.03 2.04 2.12 2.22 2.12 2.03 2.17 2.24 2.27 2.26 2.44 2.61 2.74 2.73 2.75
0.26 0.46 0.61 0.56 0.56 0.44 0.23 0.32 0.45 0.33 0.26 0.27 0.28 0.27 0.28 0.30 0.31 0.36 0.36 0.38 0.44 0.48 0.51 0.59 0.68 0.79 0.91 1.01 1.12 1.18 1.33 1.50 1.55 1.72 1.81 1.95 1.97 2.04 2.09 1.97 1.95 1.98 1.94 1.98 2.10 2.16 2.24 2.39 2.54
0.22 0.36 0.58 0.60 0.50 0.42 0.34 0.50 0.51 0.35 0.28 0.28 0.28 0.32 0.35 0.42 0.48 0.57 0.65 0.73 0.79 0.78 0.77 0.84 0.90 0.88 0.87 0.92 0.98 1.01 1.07 1.15 1.22 1.27 1.32 1.51 1.68 1.73 1.82 1.81 1.76 1.80 1.84 1.85 1.93 1.94 1.95 1.97 2.05
0.19 0.25 0.33 0.42 0.34 0.35 0.36 0.52 0.51 0.38 0.36 0.36 0.36 0.41 0.50 0.67 0.76 0.86 0.94 0.95 0.95 0.93 0.88 0.89 0.92 0.90 0.88 0.88 0.87 0.83 0.82 0.89 0.99 1.01 1.09 1.16 1.26 1.28 1.35 1.45 1.52 1.61 1.66 1.72 1.86 1.93 1.92 1.87 1.85
0.16 0.25 0.37 0.57 0.64 0.56 0.48 0.60 0.62 0.52 0.44 0.41 0.45 0.55 0.73 0.99 1.12 1.24 1.32 1.22 1.13 1.12 1.16 1.05 0.96 0.89 0.85 0.85 0.84 0.78 0.74 0.79 0.83 0.83 0.90 0.90 0.91 0.94 1.00 1.11 1.28 1.50 1.63 1.67 1.74 1.79 1.87 1.90 1.86
0.19 0.29 0.41 0.62 0.69 0.84 0.92 1.00 0.78 0.65 0.63 0.70 0.80 0.89 1.10 1.37 1.52 1.61 1.61 1.50 1.29 1.15 1.14 1.07 0.96 0.84 0.74 0.73 0.78 0.77 0.72 0.74 0.78 0.78 0.73 0.67 0.70 0.78 0.90 0.95 1.09 1.25 1.43 1.61 1.76 1.78 1.78 1.81 1.79
0.30 0.45 0.63 0.99 0.96 0.86 1.04 1.20 0.91 0.74 0.76 0.79 0.85 0.98 1.20 1.33 1.39 1.43 1.37 1.35 1.23 1.14 1.05 0.99 0.88 0.74 0.68 0.72 0.74 0.76 0.68 0.63 0.66 0.67 0.69 0.59 0.56 0.62 0.71 0.85 1.05 1.16 1.25 1.30 1.38 1.46 1.51 1.54 1.58